OpenBCM V1.13 (Linux)

Packet Radio Mailbox

DB0FHN

[JN59NK Nuernberg]

 Login: GUEST





  
LU9DCE > KEP      26.12.19 19:20l 246 Lines 12103 Bytes #999 (0) @ WW
BID : 5919_LU9DCE
Read: DF7EAV DJ6UX GUEST
Subj: TLE 26 12
Path: DB0FHN<OE2XZR<OE1XAB<HG8LXL<XE1FH<N3HYM<N7HPX<LU9DCE
Sent: 191226/1603Z 5919@LU9DCE.TOR.BA.ARG.SOAM LinBPQ6.0.19

            __    _  _  ___  ____   ___  ____    ____  ____  ____
           (  )  / )( \/ _ \(    \ / __)(  __)  (  _ \(  _ \/ ___)
           / (_/\) \/ (\__  )) D (( (__  ) _)    ) _ ( ) _ (\___ \
           \____/\____/(___/(____/ \___)(____)  (____/(____/(____/
               ESTACION DE PACKET RADIO - BUENOS AIRES (GF05OM)
                   BOLETINES INFORMATIVOS PROGRAMADOS (BIP)
                      LINUX - HELLOCODELINUX@GMAIL.COM
+----------------------------------------------------------------------------+
OSCAR 7
1  7530U 74089B   19360.18130295 -.00000050  00000-0 -30374-4 0  9999
2  7530 101.7745 326.0820 0012239 341.0799  30.0617 12.53641340 64391
OSCAR 11 (UoSAT 2)
1 14781U 84021B   19359.68855984 +.00000086 +00000-0 +16603-4 0  9990
2 14781 097.5984 015.2831 0009769 060.9577 299.2614 14.83130260905926
OSCAR 19 (LUSAT)
1 20442U 90005G   19359.87728829 -.00000020 +00000-0 +91024-5 0  9998
2 20442 098.6716 301.7436 0010986 313.1394 046.8871 14.32941109563555
EYESAT A
1 22825U 93061C   19359.87836990 -.00000013 +00000-0 +12924-4 0  9992
2 22825 098.9170 352.9925 0008725 158.8207 201.3337 14.30074270368861
ITAMSAT
1 22826U 93061D   19359.97558406 -.00000023  00000-0  92012-5 0  9995
2 22826  98.9110 353.0599 0009440 148.0158 212.1598 14.30408747369350
RADIO ROSTO
1 23439U 94085A   19359.84568277 -.00000048 +00000-0 -14888-3 0  9997
2 23439 064.8129 168.6191 0145994 075.9745 285.7360 11.27569465029338
JAS 2
1 24278U 96046B   19360.40065361 -.00000032  00000-0  42516-6 0  9992
2 24278  98.5641 128.2121 0351262 105.6546 258.3638 13.53094858153595
TECHSAT 1B
1 25397U 98043D   19359.79906131 -.00000031 +00000-0 +55059-5 0  9997
2 25397 098.7102 297.8046 0001205 154.5053 205.6185 14.23676594114709
ISS (ZARYA)
1 25544U 98067A   19360.58537351 -.00000595  00000-0 -23302-5 0  9992
2 25544  51.6421 127.4975 0007822  74.9195  35.2897 15.50125033205107
PCSAT
1 26931U 01043C   19359.94606040 -.00000005 +00000-0 +29710-4 0  9994
2 26931 067.0504 232.7259 0006952 263.6870 096.3439 14.30562706952115
SAUDISAT 1C
1 27607U 02058C   19360.12669334 -.00000042  00000-0  14933-4 0  9991
2 27607  64.5535 187.3592 0068581 218.8016 140.8152 14.75597411915135
CUTE-1
1 27844U 03031E   19359.95931078  .00000049  00000-0  41570-4 0  9995
2 27844  98.6833   5.3214 0009563 194.8853 165.2045 14.22212713855332
CUBESAT XI 4
1 27848U 03031J   19359.93548370 +.00000028 +00000-0 +32435-4 0  9993
2 27848 098.6906 005.8339 0009235 207.1475 152.9220 14.21803135855144
MOZHAYETS 4
1 27939U 03042A   19360.37149200  .00000055  00000-0  18426-4 0  9999
2 27939  98.0650 132.7896 0013017 178.8584 181.2659 14.66826558868497
CUBESAT XI 5
1 28895U 05043F   19360.16792133  .00000091  00000-0  26358-4 0  9993
2 28895  97.9841 136.6925 0018050 109.6148 250.7006 14.63723863755344
CUTE-1.7+APD II
1 32785U 08021C   19359.81244001 +.00000174 +00000-0 +24404-4 0  9993
2 32785 097.5596 350.6663 0012978 359.2704 000.8492 14.88393922631893
DELFI C3
1 32789U 08021G   19360.09967484  .00000742  00000-0  53012-4 0  9994
2 32789  97.4418  43.8094 0012027 186.5763 173.5309 15.07345050635642
SEEDS
1 32791U 08021J   19359.71045075 +.00000169 +00000-0 +22465-4 0  9998
2 32791 097.5325 356.6861 0012503 330.8511 029.2008 14.90939074632347
YUBELEINY
1 32953U 08025A   19360.31083984  .00000037  00000-0  19437-3 0  9999
2 32953  82.5053  26.2159 0020308  75.3736 284.9589 12.43093145525993
PRISM (HITOMI)
1 33493U 09002B   19359.79181957  .00000003  00000-0  59017-5 0  9997
2 33493  98.1309 288.0214 0014025 275.4423  84.5197 14.96850359593582
KKS-1 (KISEKI)
1 33499U 09002H   19359.83054424 +.00000087 +00000-0 +20777-4 0  9998
2 33499 098.3328 204.4664 0008447 328.2634 031.8064 14.75490934586838
SWISSCUBE
1 35932U 09051B   19359.70854693  .00000106  00000-0  34987-4 0  9998
2 35932  98.5997 171.4503 0006714 307.6992  52.3595 14.56342824544434
BEESAT
1 35933U 09051C   19359.76904466 +.00000076 +00000-0 +28225-4 0  9993
2 35933 098.6009 173.3425 0005092 324.6919 035.3940 14.56424708544471
ITUPSAT 1
1 35935U 09051E   19359.73054416 +.00000058 +00000-0 +24621-4 0  9999
2 35935 098.6118 173.5242 0007370 320.0239 040.0414 14.55577146544258
XIWANG-1 (HOPE-1)
1 36122U 09072B   19359.74721912 -.00000042  00000-0 -24958-6 0  9994
2 36122 100.0809 353.2466 0006920 267.5198  92.5124 13.16352550481881
TISAT 1
1 36799U 10035E   19360.38829901  .00000416  00000-0  47963-4 0  9996
2 36799  98.1755 159.1689 0012382 175.0774 185.0567 14.91233932513184
JUGNU
1 37839U 11058B   19359.81221312  .00000314  00000-0  25523-4 0  9991
2 37839  19.9608 261.8542 0018830 262.6277 145.1442 14.12667683424178
SRMSAT
1 37841U 11058D   19360.22018778  .00000311  00000-0  25734-4 0  9992
2 37841  19.9731 320.0985 0012057 129.3809 354.7832 14.10646526423623
M-CUBED/EXP-1 PRIME
1 37855U 11061F   19359.92330847 +.00000900 +00000-0 +52629-4 0  9997
2 37855 101.7261 353.3177 0172120 232.7385 125.8024 15.05901629444934
HORYU 2
1 38340U 12025D   19360.10112886  .00000137  00000-0  28045-4 0  9998
2 38340  98.3065  44.1711 0010553 233.3571 126.6667 14.75791276409249
STRAND 1
1 39090U 13009E   19359.84766807 +.00000023 +00000-0 +23207-4 0  9990
2 39090 098.4683 202.4469 0010276 084.4804 275.7553 14.35111287357644
SOMP
1 39134U 13015E   19359.72398926 +.00001226 +00000-0 +64109-4 0  9998
2 39134 064.8627 124.5787 0038331 271.9360 087.7378 15.20602772369106
BEESAT 3
1 39135U 13015F   19359.85629698 +.00000894 +00000-0 +53009-4 0  9993
2 39135 064.8652 145.1519 0043619 274.5716 085.0428 15.17810327368712
BEESAT 2
1 39136U 13015G   19359.83416529  .00000912  00000-0  55175-4 0  9996
2 39136  64.8698 149.6176 0030916 281.4152  78.3502 15.17234420369014
CUBEBUG 1
1 39153U 13018D   19360.27474438  .00000169  00000-0  28910-4 0  9992
2 39153  97.9818  97.3775 0015721 303.1720  56.7984 14.80643710360018
ZACUBE
1 39417U 13066B   19359.80919264  .00000179  00000-0  28652-4 0  9990
2 39417  97.5609   2.6109 0060047 129.7193 230.9335 14.81196914329181
TRITON 1
1 39427U 13066M   19359.84482848  .00000107  00000-0  25438-4 0  9998
2 39427  97.7016 325.7354 0112323 276.9009  81.9430 14.67923202326238
GOMX 1
1 39430U 13066Q   19360.30977444  .00000238  00000-0  51953-4 0  9992
2 39430  97.7716 304.5506 0151668  13.7611 346.7653 14.59329977324400
HUMSAT D
1 39433U 13066T   19360.38324048  .00000414  00000-0  45449-4 0  9998
2 39433  97.5304  39.8525 0031256  26.9804 333.3033 14.92335488331518
CUBEBUG 2
1 39440U 13066AA  19359.85425790 +.00000147 +00000-0 +27468-4 0  9996
2 39440 097.6147 347.1918 0079954 186.2355 173.7868 14.75934632326828
FUNCUBE 1
1 39444U 13066AE  19359.90640021 +.00000221 +00000-0 +33298-4 0  9993
2 39444 097.5571 004.8179 0059281 122.5670 238.1288 14.82033069327513
UWE-3
1 39446U 13066AG  19359.73583727 +.00000169 +00000-0 +28900-4 0  9990
2 39446 097.5873 354.2559 0070484 158.7949 201.6211 14.78468982326759
SPROUT
1 39770U 14029E   19360.27777874  .00000582  00000-0  70162-4 0  9995
2 39770  97.8909 102.4404 0009020 173.3386 186.7950 14.87552968303161
UNISAT 6
1 40012U 14033C   19360.15650698  .00000135  00000-0  27462-4 0  9991
2 40012  97.7302 218.2842 0057699 201.9894 157.8839 14.74048470296741
DUCHIFAT 1
1 40021U 14033M   19360.37826828  .00000220  00000-0  28228-4 0  9991
2 40021  97.9334 285.6683 0013711 136.6575 223.5723 14.90771091299955
QB50P1
1 40025U 14033R   19359.87897290 +.00000196 +00000-0 +26815-4 0  9991
2 40025 097.9107 279.2687 0013031 148.2515 211.9490 14.89042899299113
CHUBUSAT 1
1 40300U 14070C   19360.28976955  .00000462  00000-0  22931-4 0  9992
2 40300  97.3088  69.4758 0021117 104.3922 296.1837 15.22300220285015
NUDT-PHONESAT
1 40900U 15049B   19360.30667181  .00001731  00000-0  75606-4 0  9993
2 40900  97.4350   7.8209 0011354 232.1234 248.6114 15.23433322236678
ZDPS 2A
1 40901U 15049C   19360.32530189  .00000841  00000-0  44667-4 0  9997
2 40901  97.4612   3.4360 0011777 259.0540 158.0296 15.17996337236158
ZDPS 2B
1 40902U 15049D   19360.30271015  .00000943  00000-0  49788-4 0  9998
2 40902  97.4572   0.7634 0011886 256.3523 161.2054 15.17907298236123
XW-2A
1 40903U 15049E   19360.28464413  .00001494  00000-0  36435-4 0  9999
2 40903  97.3148  43.9192 0013556 168.1249 254.3674 15.42456843239624
KAITUO 1A
1 40904U 15049F   19360.29982601  .00000311  00000-0  19894-4 0  9992
2 40904  97.4720 359.1175 0012987 267.9752 217.1431 15.15546352235864
OBJECT G
1 40905U 15049G   19360.30669106  .00000429  00000-0  26920-4 0  9995
2 40905  97.4782 356.4838 0014069 263.1966 152.9124 15.14424473235725
XW-2C
1 40906U 15049H   19360.26138131  .00000655  00000-0  37636-4 0  9997
2 40906  97.4721 359.2566 0013146 257.6818 230.5907 15.15873482235863
XW-2D
1 40907U 15049J   19360.27911900  .00000662  00000-0  37837-4 0  9993
2 40907  97.4706 358.9606 0012547 254.5655 226.5023 15.16080221235885
LILACSAT 2
1 40908U 15049K   19360.29423763  .00000119  00000-0  10188-4 0  9998
2 40908  97.4847 357.5684 0014304 264.1488 221.1036 15.13919401235644
XW-2F
1 40910U 15049M   19360.25546647  .00000861  00000-0  46123-4 0  9996
2 40910  97.4647   1.2369 0013143 245.3298 245.9324 15.17613831235914
XW-2B
1 40911U 15049N   19360.30910117  .00000609  00000-0  35150-4 0  9998
2 40911  97.4728 359.6710 0012436 255.3470 162.5683 15.16008591235789
KAITUO 1B
1 40912U 15049P   19360.31032685  .00000907  00000-0  45280-4 0  9991
2 40912  97.4494   5.2302 0013666 223.1541 193.7249 15.19965085236260
TIANWANG 1C (TW-1C)
1 40926U 15051B   19360.38753564  .00011933  00000-0  14913-3 0  9991
2 40926  97.1129  46.5402 0007897  34.6548  21.5505 15.59944845239842
